Location: Palomar Mountain Lodge
(33.3110°N, 116.8495°W)
Time: 04:57:11
(UTC-07:00)

Tiangong - Pass Details

Date: 21 February 2026
Orbit: 381 x 391 km, 41.5° (Epoch: 8 March)

Event Time Altitude Azimuth Distance (km) Brightness Sun altitude
Rises 18:46:49 0° 296° (WNW) 2,250 2.9 -15.1°
Reaches altitude 10° 18:48:54 10° 294° (WNW) 1,393 1.7 -15.6°
Maximum altitude 18:52:01 70° 210° (SSW) 404 -2.0 -16.2°
Enters shadow 18:53:06 36° 136° (SE) 611 -1.5 -16.4°
